Time,TemperatureF,DewpointF,PressureIn,WindDirection,WindDirectionDegrees,WindSpeedMPH,WindSpeedGustMPH,Humidity,HourlyPrecipIn,Conditions,Clouds,dailyrainin,SoftwareType,DateUTC
2013-08-12 00:00:00,67.3,60.2,28.91,North,0,0.0,0.0,78,0.00,CLR,,0.00,WeatherDisplay:10.37,2013-08-12 05:00:00,
2013-08-12 00:10:00,67.5,60.4,28.91,North,0,0.0,0.0,78,0.00,CLR,,0.00,WeatherDisplay:10.37,2013-08-12 05:10:00,
2013-08-12 00:20:00,67.5,60.7,28.91,North,0,0.0,0.0,79,0.00,CLR,,0.00,WeatherDisplay:10.37,2013-08-12 05:20:00,
2013-08-12 00:30:00,67.5,61.1,28.91,North,0,0.0,0.0,80,0.00,CLR,,0.00,WeatherDisplay:10.37,2013-08-12 05:30:00,
2013-08-12 00:40:00,67.5,61.4,28.91,North,0,0.0,0.0,81,0.00,CLR,,0.00,WeatherDisplay:10.37,2013-08-12 05:40:00,
2013-08-12 00:50:00,67.5,61.8,28.91,North,0,0.0,0.0,82,0.00,CLR,,0.00,WeatherDisplay:10.37,2013-08-12 05:50:00,
2013-08-12 01:00:00,67.3,61.9,28.91,North,0,0.0,0.0,83,0.00,CLR,,0.00,WeatherDisplay:10.37,2013-08-12 06:00:00,
2013-08-12 01:10:00,67.1,62.1,28.91,North,0,0.0,0.0,84,0.00,CLR,,0.00,WeatherDisplay:10.37,2013-08-12 06:10:00,
2013-08-12 01:20:00,67.1,62.4,28.91,North,0,0.0,0.0,85,0.00,CLR,,0.00,WeatherDisplay:10.37,2013-08-12 06:20:00,
2013-08-12 01:30:00,67.3,62.9,28.91,North,0,0.0,0.0,86,0.00,CLR,,0.00,WeatherDisplay:10.37,2013-08-12 06:30:00,
2013-08-12 01:40:00,67.6,64.0,28.91,North,0,0.0,0.0,88,0.00,CLR,,0.00,WeatherDisplay:10.37,2013-08-12 06:40:00,
2013-08-12 01:50:00,67.9,64.3,28.91,North,0,0.0,0.0,88,0.00,CLR,,0.00,WeatherDisplay:10.37,2013-08-12 06:50:00,
2013-08-12 02:00:00,68.0,64.3,28.91,North,0,0.0,0.0,88,0.00,CLR,,0.00,WeatherDisplay:10.37,2013-08-12 07:00:00,
2013-08-12 02:10:00,67.8,64.5,28.91,North,0,0.0,0.0,89,0.00,CLR,,0.00,WeatherDisplay:10.37,2013-08-12 07:10:00,
2013-08-12 02:20:00,67.5,64.1,28.91,North,0,0.0,0.0,89,0.00,CLR,,0.00,WeatherDisplay:10.37,2013-08-12 07:20:00,
2013-08-12 02:30:00,67.3,63.9,28.91,North,0,0.0,0.0,89,0.00,CLR,,0.00,WeatherDisplay:10.37,2013-08-12 07:30:00,
2013-08-12 02:40:00,66.9,63.6,28.91,North,0,0.0,0.0,89,0.00,CLR,,0.00,WeatherDisplay:10.37,2013-08-12 07:40:00,
2013-08-12 02:50:00,66.6,63.2,28.91,North,0,0.0,0.0,89,0.00,CLR,,0.00,WeatherDisplay:10.37,2013-08-12 07:50:00,
2013-08-12 03:00:00,66.2,62.9,28.91,North,0,0.0,0.0,89,0.00,CLR,,0.00,WeatherDisplay:10.37,2013-08-12 08:00:00,
2013-08-12 03:10:00,66.0,62.7,28.88,North,0,0.0,0.0,89,0.00,CLR,,0.00,WeatherDisplay:10.37,2013-08-12 08:10:00,
2013-08-12 03:20:00,65.8,62.5,28.88,North,0,0.0,0.0,89,0.00,CLR,,0.00,WeatherDisplay:10.37,2013-08-12 08:20:00,
2013-08-12 03:30:00,65.7,62.0,28.88,North,0,0.0,0.0,88,0.00,CLR,,0.00,WeatherDisplay:10.37,2013-08-12 08:30:00,
2013-08-12 03:40:00,65.6,61.6,28.91,North,0,0.0,0.0,87,0.00,CLR,,0.00,WeatherDisplay:10.37,2013-08-12 08:40:00,
2013-08-12 03:50:00,65.5,61.2,28.91,North,0,0.0,0.0,86,0.00,CLR,,0.00,WeatherDisplay:10.37,2013-08-12 08:50:00,
2013-08-12 04:00:00,65.1,60.5,28.91,North,0,0.0,0.0,85,0.00,CLR,,0.00,WeatherDisplay:10.37,2013-08-12 09:00:00,
2013-08-12 04:10:00,64.9,60.3,28.91,North,0,0.0,0.0,85,0.00,CLR,,0.00,WeatherDisplay:10.37,2013-08-12 09:10:00,
2013-08-12 04:20:00,64.8,59.8,28.88,North,0,0.0,0.0,84,0.00,CLR,,0.00,WeatherDisplay:10.37,2013-08-12 09:20:00,
2013-08-12 04:30:00,64.5,59.6,28.88,North,0,0.0,0.0,84,0.00,CLR,,0.00,WeatherDisplay:10.37,2013-08-12 09:30:00,
2013-08-12 04:40:00,64.2,59.3,28.88,North,0,0.0,0.0,84,0.00,CLR,,0.00,WeatherDisplay:10.37,2013-08-12 09:40:00,
2013-08-12 04:50:00,63.9,58.6,28.88,North,0,0.0,0.0,83,0.00,CLR,,0.00,WeatherDisplay:10.37,2013-08-12 09:50:00,
2013-08-12 05:00:00,63.7,58.8,28.88,North,0,0.0,0.0,84,0.00,CLR,,0.00,WeatherDisplay:10.37,2013-08-12 10:00:00,
2013-08-12 05:10:00,63.3,58.4,28.91,North,0,0.0,0.0,84,0.00,CLR,,0.00,WeatherDisplay:10.37,2013-08-12 10:10:00,
2013-08-12 05:20:00,63.1,58.2,28.91,North,0,0.0,0.0,84,0.00,CLR,,0.00,WeatherDisplay:10.37,2013-08-12 10:20:00,
2013-08-12 05:30:00,63.0,58.0,28.91,North,0,0.0,0.0,84,0.00,CLR,,0.00,WeatherDisplay:10.37,2013-08-12 10:30:00,
2013-08-12 05:40:00,62.8,58.2,28.91,North,0,0.0,0.0,85,0.00,CLR,,0.00,WeatherDisplay:10.37,2013-08-12 10:40:00,
2013-08-12 05:50:00,62.6,58.0,28.91,North,0,0.0,0.0,85,0.00,CLR,,0.00,WeatherDisplay:10.37,2013-08-12 10:50:00,
2013-08-12 06:00:00,62.4,58.2,28.91,North,0,0.0,0.0,86,0.00,CLR,,0.00,WeatherDisplay:10.37,2013-08-12 11:00:00,
2013-08-12 06:10:00,62.2,58.0,28.91,North,0,0.0,0.0,86,0.00,CLR,,0.00,WeatherDisplay:10.37,2013-08-12 11:10:00,
2013-08-12 06:20:00,62.1,57.8,28.91,North,0,0.0,0.0,86,0.00,CLR,,0.00,WeatherDisplay:10.37,2013-08-12 11:20:00,
2013-08-12 06:30:00,61.9,58.0,28.91,North,0,0.0,0.0,87,0.00,CLR,,0.00,WeatherDisplay:10.37,2013-08-12 11:30:00,
2013-08-12 06:40:00,62.1,58.1,28.91,North,0,0.0,0.0,87,0.00,CLR,,0.00,WeatherDisplay:10.37,2013-08-12 11:40:00,
2013-08-12 06:50:00,62.2,58.3,28.91,North,0,0.0,0.0,87,0.00,CLR,,0.00,WeatherDisplay:10.37,2013-08-12 11:50:00,
2013-08-12 07:00:00,62.4,58.5,28.91,North,0,0.0,0.0,87,0.00,CLR,,0.00,WeatherDisplay:10.37,2013-08-12 12:00:00,
2013-08-12 07:10:00,62.6,58.4,28.91,North,0,0.0,0.0,86,0.00,CLR,,0.00,WeatherDisplay:10.37,2013-08-12 12:10:00,
2013-08-12 07:20:00,63.0,58.7,28.91,North,0,0.0,0.0,86,0.00,CLR,,0.00,WeatherDisplay:10.37,2013-08-12 12:20:00,
2013-08-12 07:30:00,63.3,58.7,28.91,North,0,0.0,0.0,85,0.00,CLR,,0.00,WeatherDisplay:10.37,2013-08-12 12:30:00,
2013-08-12 07:40:00,63.8,58.5,28.91,North,0,0.0,0.0,83,0.00,CLR,,0.00,WeatherDisplay:10.37,2013-08-12 12:40:00,
2013-08-12 07:50:00,64.0,58.8,28.91,North,0,0.0,0.0,83,0.00,CLR,,0.00,WeatherDisplay:10.37,2013-08-12 12:50:00,
2013-08-12 08:00:00,64.4,58.4,28.91,North,0,0.0,0.0,81,0.00,CLR,,0.00,WeatherDisplay:10.37,2013-08-12 13:00:00,
2013-08-12 08:10:00,64.8,58.4,28.91,North,0,0.0,0.0,80,0.00,CLR,,0.00,WeatherDisplay:10.37,2013-08-12 13:10:00,
2013-08-12 08:20:00,65.3,58.3,28.91,North,0,0.0,0.0,78,0.00,CLR,,0.00,WeatherDisplay:10.37,2013-08-12 13:20:00,
2013-08-12 08:30:00,65.8,58.1,28.91,North,0,0.0,0.0,76,0.00,CLR,,0.00,WeatherDisplay:10.37,2013-08-12 13:30:00,
2013-08-12 08:40:00,66.4,57.8,28.91,North,0,0.0,0.0,74,0.00,CLR,,0.00,WeatherDisplay:10.37,2013-08-12 13:40:00,
2013-08-12 08:50:00,66.7,57.4,28.91,North,0,0.0,0.0,72,0.00,CLR,,0.00,WeatherDisplay:10.37,2013-08-12 13:50:00,
2013-08-12 09:00:00,67.1,57.4,28.91,North,0,0.0,0.0,71,0.00,CLR,,0.00,WeatherDisplay:10.37,2013-08-12 14:00:00,
2013-08-12 09:10:00,67.5,57.3,28.91,North,0,0.0,0.0,70,0.00,CLR,,0.00,WeatherDisplay:10.37,2013-08-12 14:10:00,
2013-08-12 09:20:00,68.0,57.4,28.91,North,0,0.0,0.0,69,0.00,CLR,,0.00,WeatherDisplay:10.37,2013-08-12 14:20:00,
2013-08-12 09:30:00,68.4,57.4,28.91,North,0,0.0,0.0,68,0.00,CLR,,0.00,WeatherDisplay:10.37,2013-08-12 14:30:00,
2013-08-12 09:40:00,68.9,57.1,28.91,North,0,0.0,0.0,66,0.00,CLR,,0.00,WeatherDisplay:10.37,2013-08-12 14:40:00,
2013-08-12 09:50:00,69.4,55.9,28.91,North,0,0.0,0.0,62,0.00,CLR,,0.00,WeatherDisplay:10.37,2013-08-12 14:50:00,
2013-08-12 10:00:00,70.1,54.2,28.91,North,0,0.0,0.0,57,0.00,CLR,,0.00,WeatherDisplay:10.37,2013-08-12 15:00:00,
2013-08-12 10:10:00,70.7,54.7,28.94,North,0,0.0,0.0,57,0.00,CLR,,0.00,WeatherDisplay:10.37,2013-08-12 15:10:00,
2013-08-12 10:20:00,70.7,53.7,28.94,North,0,0.0,0.0,55,0.00,CLR,,0.00,WeatherDisplay:10.37,2013-08-12 15:20:00,
2013-08-12 10:30:00,71.2,53.7,28.94,North,0,0.0,0.0,54,0.00,CLR,,0.00,WeatherDisplay:10.37,2013-08-12 15:30:00,
2013-08-12 10:40:00,71.4,52.3,28.94,North,0,0.0,0.0,51,0.00,CLR,,0.00,WeatherDisplay:10.37,2013-08-12 15:40:00,
2013-08-12 10:50:00,71.6,52.5,28.94,North,0,0.0,0.0,51,0.00,CLR,,0.00,WeatherDisplay:10.37,2013-08-12 15:50:00,
2013-08-12 11:00:00,72.3,49.8,28.94,North,0,0.0,0.0,45,0.00,CLR,,0.00,WeatherDisplay:10.37,2013-08-12 16:00:00,
2013-08-12 11:10:00,72.3,51.0,28.91,North,0,0.0,0.0,47,0.00,CLR,,0.00,WeatherDisplay:10.37,2013-08-12 16:10:00,
2013-08-12 11:20:00,72.5,50.5,28.91,North,0,0.0,0.0,46,0.00,CLR,,0.00,WeatherDisplay:10.37,2013-08-12 16:20:00,
2013-08-12 11:30:00,73.2,50.0,28.91,North,0,0.0,0.0,44,0.00,CLR,,0.00,WeatherDisplay:10.37,2013-08-12 16:30:00,
2013-08-12 11:40:00,73.6,48.4,28.94,North,0,0.0,0.0,41,0.00,CLR,,0.00,WeatherDisplay:10.37,2013-08-12 16:40:00,
2013-08-12 11:50:00,73.6,49.8,28.94,North,0,0.0,0.0,43,0.00,CLR,,0.00,WeatherDisplay:10.37,2013-08-12 16:50:00,
2013-08-12 12:00:00,74.3,49.1,28.94,North,0,0.0,0.0,41,0.00,CLR,,0.00,WeatherDisplay:10.37,2013-08-12 17:00:00,
2013-08-12 12:10:00,74.5,47.2,28.94,North,0,0.0,0.0,38,0.00,CLR,,0.00,WeatherDisplay:10.37,2013-08-12 17:10:00,
2013-08-12 12:20:00,75.6,46.0,28.94,North,0,0.0,0.0,35,0.00,CLR,,0.00,WeatherDisplay:10.37,2013-08-12 17:20:00,
2013-08-12 12:30:00,75.7,44.6,28.94,North,0,0.0,0.0,33,0.00,CLR,,0.00,WeatherDisplay:10.37,2013-08-12 17:30:00,
2013-08-12 12:40:00,75.8,45.4,28.94,North,0,0.0,0.0,34,0.00,CLR,,0.00,WeatherDisplay:10.37,2013-08-12 17:40:00,
2013-08-12 12:50:00,76.1,45.7,28.94,North,0,0.0,0.0,34,0.00,CLR,,0.00,WeatherDisplay:10.37,2013-08-12 17:50:00,
2013-08-12 13:00:00,75.7,46.1,28.94,North,0,0.0,0.0,35,0.00,CLR,,0.00,WeatherDisplay:10.37,2013-08-12 18:00:00,
2013-08-12 13:10:00,76.3,46.6,28.94,North,0,0.0,0.0,35,0.00,CLR,,0.00,WeatherDisplay:10.37,2013-08-12 18:10:00,
2013-08-12 13:20:00,76.3,47.4,28.91,North,0,0.0,0.0,36,0.00,CLR,,0.00,WeatherDisplay:10.37,2013-08-12 18:20:00,
2013-08-12 13:30:00,76.1,46.5,28.91,North,0,0.0,0.0,35,0.00,CLR,,0.00,WeatherDisplay:10.37,2013-08-12 18:30:00,
2013-08-12 13:40:00,76.1,46.5,28.91,North,0,0.0,0.0,35,0.00,CLR,,0.00,WeatherDisplay:10.37,2013-08-12 18:40:00,
2013-08-12 13:50:00,76.5,46.8,28.91,North,0,0.0,0.0,35,0.00,CLR,,0.00,WeatherDisplay:10.37,2013-08-12 18:50:00,
2013-08-12 14:00:00,76.5,46.0,28.91,North,0,0.0,0.0,34,0.00,CLR,,0.00,WeatherDisplay:10.37,2013-08-12 19:00:00,
2013-08-12 14:10:00,76.5,45.2,28.91,North,0,0.0,0.0,33,0.00,CLR,,0.00,WeatherDisplay:10.37,2013-08-12 19:10:00,
2013-08-12 14:20:00,76.8,46.3,28.91,North,0,0.0,0.0,34,0.00,CLR,,0.00,WeatherDisplay:10.37,2013-08-12 19:20:00,
2013-08-12 14:30:00,77.2,45.8,28.91,North,0,0.0,0.0,33,0.00,CLR,,0.00,WeatherDisplay:10.37,2013-08-12 19:30:00,
2013-08-12 14:40:00,77.4,46.0,28.91,North,0,0.0,0.0,33,0.00,CLR,,0.00,WeatherDisplay:10.37,2013-08-12 19:40:00,
2013-08-12 14:50:00,77.2,45.8,28.91,North,0,0.0,0.0,33,0.00,CLR,,0.00,WeatherDisplay:10.37,2013-08-12 19:50:00,
2013-08-12 15:00:00,77.4,46.0,28.91,North,0,0.0,0.0,33,0.00,CLR,,0.00,WeatherDisplay:10.37,2013-08-12 20:00:00,
2013-08-12 15:10:00,77.7,45.5,28.91,North,0,0.0,0.0,32,0.00,CLR,,0.00,WeatherDisplay:10.37,2013-08-12 20:10:00,
2013-08-12 15:20:00,77.5,45.3,28.91,North,0,0.0,0.0,32,0.00,CLR,,0.00,WeatherDisplay:10.37,2013-08-12 20:20:00,
2013-08-12 15:30:00,77.4,45.2,28.91,North,0,0.0,0.0,32,0.00,CLR,,0.00,WeatherDisplay:10.37,2013-08-12 20:30:00,
2013-08-12 15:40:00,77.4,45.2,28.91,North,0,0.0,0.0,32,0.00,CLR,,0.00,WeatherDisplay:10.37,2013-08-12 20:40:00,
2013-08-12 15:50:00,77.5,45.3,28.91,North,0,0.0,0.0,32,0.00,CLR,,0.00,WeatherDisplay:10.37,2013-08-12 20:50:00,
2013-08-12 16:00:00,77.2,45.0,28.91,North,0,0.0,0.0,32,0.00,CLR,,0.00,WeatherDisplay:10.37,2013-08-12 21:00:00,
2013-08-12 16:10:00,77.4,45.2,28.91,North,0,0.0,0.0,32,0.00,CLR,,0.00,WeatherDisplay:10.37,2013-08-12 21:10:00,
2013-08-12 16:20:00,77.4,45.2,28.91,North,0,0.0,0.0,32,0.00,CLR,,0.00,WeatherDisplay:10.37,2013-08-12 21:20:00,
2013-08-12 16:30:00,77.3,45.2,28.91,North,0,0.0,0.0,32,0.00,CLR,,0.00,WeatherDisplay:10.37,2013-08-12 21:30:00,
2013-08-12 16:40:00,77.4,45.2,28.88,North,0,0.0,0.0,32,0.00,CLR,,0.00,WeatherDisplay:10.37,2013-08-12 21:40:00,
2013-08-12 16:50:00,77.7,45.5,28.88,North,0,0.0,0.0,32,0.00,CLR,,0.00,WeatherDisplay:10.37,2013-08-12 21:50:00,
2013-08-12 17:00:00,77.9,45.7,28.88,North,0,0.0,0.0,32,0.00,CLR,,0.00,WeatherDisplay:10.37,2013-08-12 22:00:00,
2013-08-12 17:10:00,77.9,45.7,28.88,North,0,0.0,0.0,32,0.00,CLR,,0.00,WeatherDisplay:10.37,2013-08-12 22:10:00,
2013-08-12 17:20:00,77.9,44.8,28.88,North,0,0.0,0.0,31,0.00,CLR,,0.00,WeatherDisplay:10.37,2013-08-12 22:20:00,
2013-08-12 17:30:00,78.1,45.8,28.88,North,0,0.0,0.0,32,0.00,CLR,,0.00,WeatherDisplay:10.37,2013-08-12 22:30:00,
2013-08-12 17:40:00,77.9,45.7,28.88,North,0,0.0,0.0,32,0.00,CLR,,0.00,WeatherDisplay:10.37,2013-08-12 22:40:00,
2013-08-12 17:50:00,77.6,45.4,28.88,North,0,0.0,0.0,32,0.00,CLR,,0.00,WeatherDisplay:10.37,2013-08-12 22:50:00,
2013-08-12 18:00:00,77.4,45.2,28.88,North,0,0.0,0.0,32,0.00,CLR,,0.00,WeatherDisplay:10.37,2013-08-12 23:00:00,
2013-08-12 18:10:00,77.2,45.8,28.88,North,0,0.0,0.0,33,0.00,CLR,,0.00,WeatherDisplay:10.37,2013-08-12 23:10:00,
2013-08-12 18:20:00,77.1,45.8,28.88,North,0,0.0,0.0,33,0.00,CLR,,0.00,WeatherDisplay:10.37,2013-08-12 23:20:00,
2013-08-12 18:30:00,76.9,45.6,28.88,North,0,0.0,0.0,33,0.00,CLR,,0.00,WeatherDisplay:10.37,2013-08-12 23:30:00,
2013-08-12 18:40:00,76.5,45.2,28.88,North,0,0.0,0.0,33,0.00,CLR,,0.00,WeatherDisplay:10.37,2013-08-12 23:40:00,
2013-08-12 18:50:00,75.7,44.5,28.91,North,0,0.0,0.0,33,0.00,CLR,,0.00,WeatherDisplay:10.37,2013-08-12 23:50:00,
2013-08-12 19:00:00,75.2,44.1,28.91,North,0,0.0,0.0,33,0.00,CLR,,0.00,WeatherDisplay:10.37,2013-08-13 00:00:00,
2013-08-12 19:10:00,75.0,44.7,28.88,North,0,0.0,0.0,34,0.00,CLR,,0.00,WeatherDisplay:10.37,2013-08-13 00:10:00,
2013-08-12 19:20:00,74.5,44.3,28.91,North,0,0.0,0.0,34,0.00,CLR,,0.00,WeatherDisplay:10.37,2013-08-13 00:20:00,
2013-08-12 19:30:00,73.8,44.4,28.91,North,0,0.0,0.0,35,0.00,CLR,,0.00,WeatherDisplay:10.37,2013-08-13 00:30:00,
2013-08-12 19:40:00,73.4,44.1,28.91,North,0,0.0,0.0,35,0.00,CLR,,0.00,WeatherDisplay:10.37,2013-08-13 00:40:00,
2013-08-12 19:50:00,73.4,44.8,28.91,North,0,0.0,0.0,36,0.00,CLR,,0.00,WeatherDisplay:10.37,2013-08-13 00:50:00,
2013-08-12 20:00:00,73.1,45.3,28.91,North,0,0.0,0.0,37,0.00,CLR,,0.00,WeatherDisplay:10.37,2013-08-13 01:00:00,
2013-08-12 20:10:00,72.9,45.1,28.91,North,0,0.0,0.0,37,0.00,CLR,,0.00,WeatherDisplay:10.37,2013-08-13 01:10:00,
2013-08-12 20:20:00,72.7,45.6,28.91,North,0,0.0,0.0,38,0.00,CLR,,0.00,WeatherDisplay:10.37,2013-08-13 01:20:00,
2013-08-12 20:30:00,72.3,44.6,28.91,North,0,0.0,0.0,37,0.00,CLR,,0.00,WeatherDisplay:10.37,2013-08-13 01:30:00,
2013-08-12 20:40:00,72.1,44.4,28.91,North,0,0.0,0.0,37,0.00,CLR,,0.00,WeatherDisplay:10.37,2013-08-13 01:40:00,
2013-08-12 20:50:00,72.0,44.3,28.91,North,0,0.0,0.0,37,0.00,CLR,,0.00,WeatherDisplay:10.37,2013-08-13 01:50:00,
2013-08-12 21:00:00,71.7,44.7,28.91,North,0,0.0,0.0,38,0.00,CLR,,0.00,WeatherDisplay:10.37,2013-08-13 02:00:00,
2013-08-12 21:10:00,71.6,45.3,28.91,North,0,0.0,0.0,39,0.00,CLR,,0.00,WeatherDisplay:10.37,2013-08-13 02:10:00,
2013-08-12 21:20:00,71.2,45.7,28.91,North,0,0.0,0.0,40,0.00,CLR,,0.00,WeatherDisplay:10.37,2013-08-13 02:20:00,
2013-08-12 21:30:00,70.7,46.5,28.91,North,0,0.0,0.0,42,0.00,CLR,,0.00,WeatherDisplay:10.37,2013-08-13 02:30:00,
2013-08-12 21:40:00,70.2,46.6,28.94,North,0,0.0,0.0,43,0.00,CLR,,0.00,WeatherDisplay:10.37,2013-08-13 02:40:00,
2013-08-12 21:50:00,69.8,46.9,28.94,North,0,0.0,0.0,44,0.00,CLR,,0.00,WeatherDisplay:10.37,2013-08-13 02:50:00,
2013-08-12 22:00:00,69.3,47.0,28.94,North,0,0.0,0.0,45,0.00,CLR,,0.00,WeatherDisplay:10.37,2013-08-13 03:00:00,
2013-08-12 22:10:00,68.7,47.7,28.94,North,0,0.0,0.0,47,0.00,CLR,,0.00,WeatherDisplay:10.37,2013-08-13 03:10:00,
2013-08-12 22:20:00,68.2,47.7,28.94,North,0,0.0,0.0,48,0.00,CLR,,0.00,WeatherDisplay:10.37,2013-08-13 03:20:00,
2013-08-12 22:30:00,67.8,48.5,28.94,North,0,0.0,0.0,50,0.00,CLR,,0.00,WeatherDisplay:10.37,2013-08-13 03:30:00,
2013-08-12 22:40:00,67.5,48.7,28.94,North,0,0.0,0.0,51,0.00,CLR,,0.00,WeatherDisplay:10.37,2013-08-13 03:40:00,
2013-08-12 23:00:00,66.6,49.4,28.94,North,0,0.0,0.0,54,0.00,CLR,,0.00,WeatherDisplay:10.37,2013-08-13 04:00:00,
2013-08-12 23:10:00,66.5,49.8,28.94,North,0,0.0,0.0,55,0.00,CLR,,0.00,WeatherDisplay:10.37,2013-08-13 04:10:00,
2013-08-12 23:20:00,66.6,50.4,28.94,North,0,0.0,0.0,56,0.00,CLR,,0.00,WeatherDisplay:10.37,2013-08-13 04:20:00,
2013-08-12 23:30:00,66.4,50.2,28.94,North,0,0.0,0.0,56,0.00,CLR,,0.00,WeatherDisplay:10.37,2013-08-13 04:30:00,
2013-08-12 23:40:00,66.2,50.5,28.94,North,0,0.0,0.0,57,0.00,CLR,,0.00,WeatherDisplay:10.37,2013-08-13 04:40:00,
2013-08-12 23:50:00,65.8,51.6,28.97,North,0,0.0,0.0,60,0.00,CLR,,0.00,WeatherDisplay:10.37,2013-08-13 04:50:00,